timestamp,wind_dir_avg,wind_spd_avg,wind_spd_max_dir,wind_spd_gust,battery_voltage,lat,long
2023-09-18 00:04:00+00:00,227.0,12.99,236.0,15.91,12.49,47.59359,-54.27349
2023-09-18 00:14:01+00:00,227.0,14.72,224.0,16.26,12.41,47.59359,-54.27349
2023-09-18 00:24:01+00:00,225.0,13.79,229.0,16.88,12.41,47.59359,-54.27349
2023-09-18 00:34:01+00:00,232.0,11.05,231.0,14.3,12.41,47.59359,-54.27349
2023-09-18 00:44:01+00:00,230.0,11.55,233.0,13.74,12.41,47.59359,-54.27349
2023-09-18 00:54:01+00:00,229.0,13.25,231.0,18.44,12.41,47.59359,-54.27349
2023-09-18 01:04:01+00:00,229.0,13.98,231.0,15.7,12.41,47.59359,-54.27349
2023-09-18 01:14:01+00:00,230.0,11.91,232.0,14.39,12.41,47.59359,-54.27349
2023-09-18 01:24:01+00:00,228.0,13.44,233.0,15.64,12.41,47.59359,-54.27349
2023-09-18 01:34:01+00:00,234.0,12.85,239.0,14.88,12.41,47.59359,-54.27349
2023-09-18 01:44:01+00:00,232.0,14.0,228.0,15.99,12.41,47.59359,-54.27349
2023-09-18 01:54:01+00:00,231.0,11.99,226.0,14.02,12.41,47.59359,-54.27349
2023-09-18 02:04:01+00:00,231.0,13.98,229.0,16.43,12.41,47.59359,-54.27349
2023-09-18 02:14:01+00:00,229.0,12.05,231.0,14.89,12.41,47.59359,-54.27349
2023-09-18 02:24:01+00:00,232.0,14.4,237.0,17.61,12.41,47.59359,-54.27349
2023-09-18 02:34:01+00:00,231.0,14.01,229.0,16.51,12.41,47.59359,-54.27349
2023-09-18 02:44:01+00:00,231.0,12.86,232.0,15.15,12.41,47.59359,-54.27349
2023-09-18 02:54:01+00:00,230.0,13.8,219.0,16.76,12.41,47.59359,-54.27349
2023-09-18 03:04:01+00:00,233.0,12.38,235.0,15.04,12.41,47.59359,-54.27349
2023-09-18 03:14:01+00:00,234.0,10.39,240.0,12.2,12.41,47.59359,-54.27349
2023-09-18 03:24:01+00:00,234.0,11.29,231.0,13.67,12.41,47.59359,-54.27349
2023-09-18 03:34:01+00:00,234.0,11.12,235.0,13.02,12.41,47.59359,-54.27349
2023-09-18 03:44:01+00:00,234.0,11.5,233.0,13.54,12.41,47.59359,-54.27349
2023-09-18 03:54:01+00:00,240.0,11.67,250.0,14.7,12.41,47.59359,-54.27349
2023-09-18 04:04:01+00:00,241.0,11.17,243.0,13.47,12.41,47.59359,-54.27349
2023-09-18 04:14:00+00:00,245.0,15.12,252.0,18.86,12.41,47.59359,-54.27349
2023-09-18 04:24:00+00:00,243.0,13.75,235.0,18.93,12.41,47.59359,-54.27349
2023-09-18 04:34:00+00:00,238.0,13.63,239.0,16.0,12.41,47.59359,-54.27349
2023-09-18 04:44:00+00:00,240.0,11.51,245.0,14.16,12.41,47.59359,-54.27349
2023-09-18 04:54:00+00:00,244.0,11.84,241.0,14.16,12.41,47.59359,-54.27349
2023-09-18 05:04:00+00:00,242.0,11.75,243.0,14.7,12.41,47.59359,-54.27349
2023-09-18 05:14:00+00:00,246.0,11.69,246.0,14.12,12.41,47.59359,-54.27349
2023-09-18 05:24:00+00:00,249.0,12.51,249.0,16.12,12.41,47.59359,-54.27349
2023-09-18 05:34:00+00:00,238.0,12.68,238.0,15.09,12.41,47.59359,-54.27349
2023-09-18 05:44:00+00:00,244.0,12.57,243.0,15.32,12.41,47.59359,-54.27349
2023-09-18 05:54:00+00:00,243.0,12.58,251.0,15.26,12.41,47.59359,-54.27349
2023-09-18 06:04:00+00:00,243.0,12.01,246.0,14.43,12.41,47.59359,-54.27349
2023-09-18 06:14:01+00:00,256.0,12.39,256.0,14.8,12.33,47.59359,-54.27349
2023-09-18 06:24:01+00:00,254.0,12.07,256.0,14.17,12.33,47.59359,-54.27349
2023-09-18 06:34:01+00:00,259.0,14.62,259.0,16.83,12.33,47.59359,-54.27349
2023-09-18 06:44:01+00:00,263.0,12.13,267.0,14.89,12.33,47.59359,-54.27349
2023-09-18 06:54:01+00:00,255.0,11.57,255.0,13.25,12.33,47.59359,-54.27349
2023-09-18 07:04:01+00:00,257.0,12.51,258.0,14.72,12.33,47.59359,-54.27349
2023-09-18 07:14:00+00:00,258.0,14.14,259.0,16.79,12.33,47.59359,-54.27349
2023-09-18 07:24:00+00:00,255.0,11.37,257.0,13.13,12.33,47.59359,-54.27349
2023-09-18 07:34:00+00:00,257.0,11.82,255.0,14.29,12.33,47.59359,-54.27349
2023-09-18 07:44:00+00:00,242.0,12.06,242.0,14.26,12.33,47.59359,-54.27349
2023-09-18 07:54:00+00:00,248.0,11.43,252.0,14.13,12.33,47.59359,-54.27349
2023-09-18 08:04:00+00:00,254.0,11.05,259.0,13.23,12.33,47.59359,-54.27349
2023-09-18 08:14:00+00:00,251.0,10.5,253.0,12.47,12.33,47.59359,-54.27349
2023-09-18 08:24:00+00:00,254.0,10.67,261.0,14.08,12.33,47.59359,-54.27349
2023-09-18 08:34:00+00:00,255.0,9.94,251.0,11.93,12.33,47.59359,-54.27349
2023-09-18 08:44:00+00:00,255.0,9.59,254.0,11.47,12.33,47.59359,-54.27349
2023-09-18 08:54:00+00:00,245.0,10.02,244.0,11.17,12.33,47.59359,-54.27349
2023-09-18 09:04:00+00:00,238.0,9.13,243.0,11.42,12.33,47.59359,-54.27349
2023-09-18 09:14:01+00:00,241.0,9.58,235.0,10.9,12.25,47.59359,-54.27349
2023-09-18 09:24:01+00:00,246.0,8.19,244.0,9.27,12.25,47.59359,-54.27349
2023-09-18 09:34:01+00:00,245.0,8.62,246.0,10.19,12.25,47.59359,-54.27349
2023-09-18 09:44:01+00:00,245.0,8.52,239.0,10.2,12.25,47.59359,-54.27349
2023-09-18 09:54:01+00:00,247.0,7.85,266.0,10.22,12.25,47.59359,-54.27349
2023-09-18 10:04:01+00:00,244.0,8.84,253.0,11.91,12.25,47.59359,-54.27349
2023-09-18 10:14:01+00:00,263.0,8.55,266.0,10.23,12.33,47.59359,-54.27349
2023-09-18 10:24:01+00:00,246.0,8.4,256.0,9.51,12.33,47.59359,-54.27349
2023-09-18 10:34:01+00:00,249.0,7.57,252.0,9.04,12.33,47.59359,-54.27349
2023-09-18 10:44:01+00:00,248.0,6.42,244.0,8.01,12.33,47.59359,-54.27349
2023-09-18 10:54:01+00:00,250.0,7.3,246.0,8.35,12.33,47.59359,-54.27349
2023-09-18 11:04:01+00:00,248.0,7.84,254.0,8.51,12.33,47.59359,-54.27349
2023-09-18 11:14:01+00:00,247.0,7.96,249.0,9.77,12.81,47.59359,-54.27349
2023-09-18 11:24:01+00:00,261.0,8.41,262.0,10.32,12.81,47.59359,-54.27349
2023-09-18 11:34:01+00:00,254.0,7.5,262.0,8.63,12.81,47.59359,-54.27349
2023-09-18 11:44:01+00:00,271.0,6.1,275.0,6.89,12.81,47.59359,-54.27349
2023-09-18 11:54:01+00:00,271.0,6.73,279.0,8.2,12.81,47.59359,-54.27349
2023-09-18 12:04:01+00:00,277.0,6.82,269.0,8.28,12.81,47.59359,-54.27349
2023-09-18 12:14:00+00:00,269.0,8.76,266.0,9.94,13.76,47.59359,-54.27349
2023-09-18 12:24:00+00:00,261.0,7.76,256.0,9.1,13.76,47.59359,-54.27349
2023-09-18 12:34:00+00:00,266.0,6.87,271.0,8.22,13.76,47.59359,-54.27349
2023-09-18 12:44:00+00:00,275.0,9.8,279.0,11.61,13.76,47.59359,-54.27349
2023-09-18 12:54:00+00:00,274.0,9.22,273.0,11.2,13.76,47.59359,-54.27349
2023-09-18 13:04:00+00:00,287.0,7.01,288.0,7.83,13.76,47.59359,-54.27349
2023-09-18 13:14:01+00:00,277.0,8.98,282.0,10.85,13.76,47.59359,-54.27349
2023-09-18 13:24:01+00:00,282.0,9.61,276.0,10.65,13.76,47.59359,-54.27349
2023-09-18 13:34:01+00:00,276.0,8.65,276.0,9.83,13.76,47.59359,-54.27349
2023-09-18 13:44:01+00:00,277.0,9.95,282.0,11.69,13.76,47.59359,-54.27349
2023-09-18 13:54:01+00:00,278.0,8.73,276.0,9.96,13.76,47.59359,-54.27349
2023-09-18 14:04:01+00:00,274.0,8.12,280.0,10.12,13.76,47.59359,-54.27349
2023-09-18 14:14:00+00:00,276.0,8.13,276.0,9.99,13.76,47.59359,-54.27349
2023-09-18 14:24:00+00:00,284.0,5.96,288.0,7.03,13.76,47.59359,-54.27349
2023-09-18 14:34:00+00:00,278.0,4.95,282.0,5.77,13.76,47.59359,-54.27349
2023-09-18 14:44:00+00:00,275.0,6.89,276.0,7.8,13.76,47.59359,-54.27349
2023-09-18 14:54:00+00:00,285.0,7.25,291.0,8.62,13.76,47.59359,-54.27349
2023-09-18 15:04:00+00:00,287.0,7.48,285.0,8.29,13.76,47.59359,-54.27349
2023-09-18 15:14:00+00:00,283.0,6.24,285.0,6.88,13.76,47.59359,-54.27349
2023-09-18 15:24:00+00:00,277.0,6.24,280.0,7.18,13.76,47.59359,-54.27349
2023-09-18 15:34:00+00:00,289.0,5.61,287.0,6.37,13.76,47.59359,-54.27349
2023-09-18 15:44:00+00:00,298.0,5.91,296.0,6.48,13.76,47.59359,-54.27349
2023-09-18 15:54:00+00:00,286.0,6.5,289.0,7.05,13.76,47.59359,-54.27349
2023-09-18 16:04:00+00:00,303.0,5.8,305.0,6.73,13.76,47.59359,-54.27349
2023-09-18 16:14:01+00:00,329.0,7.35,334.0,8.71,13.68,47.59359,-54.27349
2023-09-18 16:24:01+00:00,327.0,6.91,326.0,7.34,13.68,47.59359,-54.27349
2023-09-18 16:34:01+00:00,325.0,5.74,322.0,7.24,13.68,47.59359,-54.27349
2023-09-18 16:44:01+00:00,323.0,6.46,325.0,7.13,13.68,47.59359,-54.27349
2023-09-18 16:54:01+00:00,12.0,8.02,13.0,9.14,13.68,47.59359,-54.27349
2023-09-18 17:04:01+00:00,359.0,7.91,1.0,9.38,13.68,47.59359,-54.27349
2023-09-18 17:14:00+00:00,4.0,6.1,0.0,6.89,13.84,47.59359,-54.27349
2023-09-18 17:24:00+00:00,11.0,4.81,8.0,5.62,13.84,47.59359,-54.27349
2023-09-18 17:34:00+00:00,3.0,6.41,6.0,7.66,13.84,47.59359,-54.27349
2023-09-18 17:44:00+00:00,13.0,7.1,13.0,8.07,13.84,47.59359,-54.27349
2023-09-18 17:54:00+00:00,9.0,4.57,15.0,5.68,13.84,47.59359,-54.27349
2023-09-18 18:04:00+00:00,14.0,6.3,16.0,7.05,13.84,47.59359,-54.27349
2023-09-18 18:14:00+00:00,18.0,5.59,16.0,6.34,13.84,47.59359,-54.27349
2023-09-18 18:24:00+00:00,18.0,6.24,16.0,7.06,13.84,47.59359,-54.27349
2023-09-18 18:34:00+00:00,20.0,5.65,20.0,6.17,13.84,47.59359,-54.27349
2023-09-18 18:44:00+00:00,4.0,5.03,3.0,5.74,13.84,47.59359,-54.27349
2023-09-18 18:54:00+00:00,28.0,3.57,33.0,3.92,13.84,47.59359,-54.27349
2023-09-18 19:04:00+00:00,20.0,5.61,17.0,6.17,13.84,47.59359,-54.27349
2023-09-18 19:14:01+00:00,16.0,5.66,13.0,6.09,13.44,47.59359,-54.27349
2023-09-18 19:24:01+00:00,5.0,4.17,2.0,4.93,13.44,47.59359,-54.27349
2023-09-18 19:34:01+00:00,6.0,4.07,3.0,4.76,13.44,47.59359,-54.27349
2023-09-18 19:44:01+00:00,14.0,4.49,14.0,5.27,13.44,47.59359,-54.27349
2023-09-18 19:54:01+00:00,13.0,4.36,17.0,5.16,13.44,47.59359,-54.27349
2023-09-18 20:04:01+00:00,52.0,6.55,53.0,7.39,13.44,47.59359,-54.27349
2023-09-18 20:14:00+00:00,53.0,7.76,52.0,8.26,13.21,47.59359,-54.27349
2023-09-18 20:24:00+00:00,49.0,7.73,48.0,8.34,13.21,47.59359,-54.27349
2023-09-18 20:34:00+00:00,44.0,8.25,43.0,8.83,13.21,47.59359,-54.27349
2023-09-18 20:44:00+00:00,44.0,7.06,42.0,7.79,13.21,47.59359,-54.27349
2023-09-18 20:54:00+00:00,44.0,8.13,45.0,9.04,13.21,47.59359,-54.27349
2023-09-18 21:04:00+00:00,36.0,8.63,37.0,9.3,13.21,47.59359,-54.27349
2023-09-18 21:14:00+00:00,38.0,8.71,38.0,9.81,12.97,47.59359,-54.27349
2023-09-18 21:24:00+00:00,44.0,7.39,38.0,8.77,12.97,47.59359,-54.27349
2023-09-18 21:34:00+00:00,31.0,7.91,33.0,8.54,12.97,47.59359,-54.27349
2023-09-18 21:44:00+00:00,42.0,8.74,40.0,9.87,12.97,47.59359,-54.27349
2023-09-18 21:54:00+00:00,37.0,8.19,36.0,9.11,12.97,47.59359,-54.27349
2023-09-18 22:04:00+00:00,50.0,8.37,51.0,9.34,12.97,47.59359,-54.27349
2023-09-18 22:14:00+00:00,56.0,8.33,56.0,9.3,12.49,47.59359,-54.27349
2023-09-18 22:24:00+00:00,41.0,9.19,42.0,10.33,12.49,47.59359,-54.27349
2023-09-18 22:34:00+00:00,47.0,9.37,47.0,10.06,12.49,47.59359,-54.27349
2023-09-18 22:44:00+00:00,53.0,8.44,49.0,10.04,12.49,47.59359,-54.27349
2023-09-18 22:54:00+00:00,57.0,8.55,55.0,9.75,12.49,47.59359,-54.27349
2023-09-18 23:04:00+00:00,49.0,8.84,54.0,11.78,12.49,47.59359,-54.27349
2023-09-18 23:14:00+00:00,49.0,9.49,51.0,11.59,12.49,47.59359,-54.27349
2023-09-18 23:24:00+00:00,51.0,8.77,55.0,11.01,12.49,47.59359,-54.27349
2023-09-18 23:34:00+00:00,51.0,7.1,60.0,8.57,12.49,47.59359,-54.27349
2023-09-18 23:44:00+00:00,62.0,8.04,59.0,9.32,12.49,47.59359,-54.27349
2023-09-18 23:54:00+00:00,65.0,7.32,67.0,9.88,12.49,47.59359,-54.27349
